Regional Weather Roundup
Issued by NWS

Home | Current Version | Previous Version | Graphics & Text | Print | Product List | Glossary On
Versions: 1 2 3 4 5 6 7 8 9 10 11 12 13 14 15 16 17 18 19 20 21 22 23 24 25 26 27 28 29 30 31 32 33 34 35 36 37 38 39 40 41 42 43 44 45 46 47 48 49 50
000
ASUS43 KBIS 210120
RWRND

NORTH DAKOTA REGIONAL WEATHER ROUNDUP
NATIONAL WEATHER SERVICE BISMARCK ND
800 PM CDT SAT SEP 20 2014

NOTE: "FAIR" INDICATES FEW OR NO CLOUDS BELOW 12,000 FEET WITH NO
SIGNIFICANT WEATHER AND/OR OBSTRUCTIONS TO VISIBILITY.


NDZ001>003-009>011-017-210200-
NORTHWEST NORTH DAKOTA

CITY           SKY/WX    TMP DP  RH WIND       PRES   REMARKS
WILLISTON      CLEAR     64  35  34 NW15      30.11R
MINOT          CLEAR     63  39  41 NW18      30.02R
MINOT AFB      CLEAR     62  42  48 NW15      30.01R
$$

NDZ018>021-031>035-040>046-210200-
SOUTHWEST NORTH DAKOTA

CITY           SKY/WX    TMP DP  RH WIND       PRES   REMARKS
BISMARCK       CLEAR     66  37  34 NW15      30.03S
DICKINSON      PTCLDY    61  34  36 NW10      30.12R
GARRISON         N/A     63  39  41 NW16G26   30.04R
HETTINGER ARPT CLEAR     60  35  39 NW10      30.15R
$$

NDZ004>008-012>016-024-026-027-054-210200-
NORTHEAST NORTH DAKOTA

CITY           SKY/WX    TMP DP  RH WIND       PRES   REMARKS
GRAND FORKS    CLOUDY    57  52  83 N8        29.88R
GRND FRKS AFB  CLOUDY    58  55  92 NE9       29.89R
DEVILS LAKE    MOCLDY    61  45  55 NW12      29.93R
$$

NDZ022-023-025-028>030-036>039-047>053-210200-
SOUTHEAST NORTH DAKOTA

CITY           SKY/WX    TMP DP  RH WIND       PRES   REMARKS
FARGO          PTCLDY    59  50  72 NW10      29.86R
JAMESTOWN      CLEAR     61  41  47 NW12      29.94R
$$



USA.gov is the U.S. government's official web portal to all federal, state and local government web resources and services.